Location: Azul
(36.7830°S, 59.8500°W)
Time: 13:16:28
(UTC-03:00)

ISS - Pass Details

Date: 16 August 2017
Orbit: 401 x 408 km, 51.6° (Epoch: 19 August)

Event Time Altitude Azimuth Distance (km) Brightness Sun altitude
Exits shadow 06:38:56 11° 210° (SSW) 1,435 -1.4 -13.0°
Maximum altitude 06:41:49 31° 147° (SSE) 750 -2.2 -12.4°
Drops below altitude 10° 06:44:51 10° 81° (E) 1,486 0.6 -11.8°
Sets 06:47:04 0° 70° (ENE) 2,342 1.9 -11.4°
